Location: Unspecified
(0.0000°N, 0.0000°E)
Time: 06:14:56
(UTC+01:00)

Centaur D-1AR AC-41 - Visible Passes

Search period start: 28 March 2015 00:00
Search period end: 07 April 2015 01:00
Orbit: 588 x 36254 km, 21.2° (Epoch: 27 March)

Date Brightness Start Highest point End Pass type
(mag) Time Alt. Az. Time Alt. Az. Time Alt. Az.
28 Mar 7.1 13:59:50 10° WSW 23:54:14 51° NW 23:54:14 51° NW visible
29 Mar 7.1 12:22:28 10° W 22:03:37 87° NNW 22:30:12 37° ENE visible
31 Mar 5.0 07:20:57 10° NNW 07:24:35 30° NE 07:34:22 10° E visible
01 Apr 7.6 16:23:51 10° WSW 02:05:46 24° WNW 02:05:46 24° WNW visible
02 Apr 6.7 13:39:01 10° WSW 23:34:22 66° NNW 23:41:41 56° NNE visible
03 Apr 6.5 11:04:33 10° W 19:36:55 79° SSE 21:17:37 12° ENE visible
05 Apr 5.1 06:05:41 12° N 06:06:48 13° NNE 06:09:22 10° ENE visible
05 Apr 8.1 18:02:31 10° WSW 03:17:12 - WNW 03:17:12 - WNW visible
